(498826) = 2008 VO24

Discovered at Kitt Peak on 2008-10-24 by Spacewatch.

Orbit

Orbit type: Main Belt

Note: WebGL enabled browser required.

epoch2024-03-31.0
epoch JD2460400.5
perihelion date2022-05-12.37705
perihelion JD2459711.87705
argument of perihelion (°)292.54679
ascending node (°)94.96068
inclination (°)6.23450
eccentricity0.1369882
perihelion distance (AU)2.3940867
Tisserand w.r.t. Jupiter3.3
ΔV w.r.t. Earth (km/sec)9.9
semimajor axis (AU)2.7741064
mean anomaly (°)146.89285
mean daily motion (°/day)0.21331390
aphelion distance (AU)3.154
period (years)4.62
P-vector [x]0.88150885
P-vector [y]0.46321492
P-vector [z]0.09151006
Q-vector [x]-0.45960506
Q-vector [y]0.79737751
Q-vector [z]0.39109116
absolute magnitude17.3
phase slope0.15
uncertainty0
referenceMPEC 2024-E190
observations used126
oppositions11
arc length (days)5620
first opposition used2008
last opposition used2024
residual rms (arc-secs)0.75
perturbers coarse indicatorM-v
perturbers precise indicator003Ek
first observation date used2008-10-24.0
last observation date used2024-03-14.0
computer nameMPCLINUX
JD of orbit computation2458026.269715
perihelion JD uncertainty (days)7.5943E-05
argument of perihelion uncertainty (°)5.2531E-05
ascending node uncertainty (°)4.8930E-05
inclination uncertainty (°)4.2717E-06
eccentricity uncertainty 5.7609E-08
perihelion distance uncertainty (AU)1.6636E-07
Minimum Orbit Intersection Distances (in AU)
for orbit epoch: 2460400.5, reference: E2024-GF4
Mercury2.05785
Venus1.67114
Earth1.40764
Mars0.95099
Jupiter2.29518
Saturn6.33386
Uranus15.3796
Neptune27.4226

Observations

128 total observations over interval: 2008 10 24.45299 – 2024 03 14.403462
These data are available for download (format description).

